Location: Unspecified
(0.0000°N, 0.0000°E)
Time: 23:17:26
(UTC+00:00)

Vanguard 2 - Pass Details

Date: 06 October 2020
Orbit: 554 x 2937 km, 32.9° (Epoch: 28 October)

Event Time Altitude Azimuth Distance (km) Brightness Sun altitude
Rises 11:11:17 0° 297° (WNW) 2,711 10.2 79.4°
Reaches altitude 10° 11:13:22 10° 292° (WNW) 1,856 9.5 79.8°
Maximum altitude 11:17:21 56° 213° (SSW) 766 8.7 80.6°
Drops below altitude 10° 11:22:41 10° 134° (SE) 2,472 10.4 81.7°
Sets 11:25:51 0° 131° (SE) 3,732 11.2 82.3°
